﻿_id,日時,平均風速(m/s),平均風向,最大瞬間風速(m/s),最大風速時風向,気温(℃),湿度(%),10分間移動積算雨量(mm),1時間移動積算雨量(mm),日雨量(mm),累計雨量(mm),日射(日積算)(MJ/m2),日照(日積算)(min),現地気圧(hPa),海面気圧(hPa)
1,2023-07-31T00:00:00,1.4,南南西,2.9,南,26.8,82.3,0,0,0,0,25.65,636,1004,1017.3
2,2023-07-31T00:01:00,1.5,南南西,2.9,南,27,82.8,0,0,0,0,0,0,1004,1017.3
3,2023-07-31T00:02:00,1.6,南南西,2.9,南,27,83,0,0,0,0,0,0,1004,1017.3
4,2023-07-31T00:03:00,1.6,南南西,2.9,南,27.1,83,0,0,0,0,0,0,1004,1017.3
5,2023-07-31T00:04:00,1.6,南南西,2.9,南,27,82.8,0,0,0,0,0,0,1004,1017.3
6,2023-07-31T00:05:00,1.6,南南西,2.9,南,27.1,83,0,0,0,0,0,0,1004,1017.3
7,2023-07-31T00:06:00,1.6,南南西,2.9,南,27.1,82.9,0,0,0,0,0,0,1003.9,1017.2
8,2023-07-31T00:07:00,1.6,南南西,2.9,南,26.9,82.6,0,0,0,0,0,0,1003.9,1017.2
9,2023-07-31T00:08:00,1.5,南南西,2.9,南,27,83,0,0,0,0,0,0,1003.9,1017.2
10,2023-07-31T00:09:00,1.4,南南西,2.9,南,27,82.9,0,0,0,0,0,0,1003.9,1017.2
11,2023-07-31T00:10:00,1.3,南南西,2.3,南,26.9,83.1,0,0,0,0,0,0,1003.9,1017.2
12,2023-07-31T00:11:00,1.3,南南西,2.3,南,26.9,83.1,0,0,0,0,0,0,1003.9,1017.2
13,2023-07-31T00:12:00,1.2,南南西,2.1,南,26.8,83.3,0,0,0,0,0,0,1003.9,1017.2
14,2023-07-31T00:13:00,1.3,南南西,2.1,南,26.8,83.4,0,0,0,0,0,0,1003.9,1017.2
15,2023-07-31T00:14:00,1.3,南南西,2.1,南,26.7,83.6,0,0,0,0,0,0,1003.9,1017.2
16,2023-07-31T00:15:00,1.3,南南西,2.1,南,26.7,83.9,0,0,0,0,0,0,1003.8,1017.1
17,2023-07-31T00:16:00,1.2,南南西,2.1,南,26.6,84.1,0,0,0,0,0,0,1003.8,1017.1
18,2023-07-31T00:17:00,1.2,南南西,2.1,南,26.7,84.6,0,0,0,0,0,0,1003.8,1017.1
19,2023-07-31T00:18:00,1.1,南南西,2.1,南,26.8,84.7,0,0,0,0,0,0,1003.8,1017.1
20,2023-07-31T00:19:00,1.1,南南西,2.1,南,26.8,84.6,0,0,0,0,0,0,1003.8,1017.1
21,2023-07-31T00:20:00,1.1,南南西,2.1,南,26.8,84.7,0,0,0,0,0,0,1003.8,1017.1
22,2023-07-31T00:21:00,1.1,南南西,2.1,南南西,26.8,84.5,0,0,0,0,0,0,1003.8,1017.1
23,2023-07-31T00:22:00,1,南南西,2.1,南南西,27,84.6,0,0,0,0,0,0,1003.8,1017.1
24,2023-07-31T00:23:00,0.9,南南西,2.1,南南西,26.9,84.3,0,0,0,0,0,0,1003.8,1017.1
25,2023-07-31T00:24:00,0.9,南南西,2.1,南南西,27,84.1,0,0,0,0,0,0,1003.8,1017.1
26,2023-07-31T00:25:00,0.8,南南西,2,南南西,27,83.8,0,0,0,0,0,0,1003.8,1017.1
27,2023-07-31T00:26:00,0.7,南南西,2,南南西,26.9,83.4,0,0,0,0,0,0,1003.8,1017.1
28,2023-07-31T00:27:00,0.7,南南西,1.8,南南西,26.9,83.6,0,0,0,0,0,0,1003.8,1017.1
29,2023-07-31T00:28:00,0.7,南南西,1.8,南南西,26.8,83.2,0,0,0,0,0,0,1003.7,1017
30,2023-07-31T00:29:00,0.6,南西,1.7,南,26.9,83.6,0,0,0,0,0,0,1003.7,1017
31,2023-07-31T00:30:00,0.6,南西,1.5,南南西,26.2,82.3,0,0,0,0,0,0,1003.7,1017
32,2023-07-31T00:31:00,0.6,南西,1.5,南南西,26.3,83.6,0,0,0,0,0,0,1003.8,1017.1
33,2023-07-31T00:32:00,0.7,南西,1.6,西南西,25.9,84.2,0,0,0,0,0,0,1003.7,1017.1
34,2023-07-31T00:33:00,0.8,南西,1.9,西,25.7,84.8,0,0,0,0,0,0,1003.7,1017.1
35,2023-07-31T00:34:00,0.9,南西,2,西南西,25.6,85.7,0,0,0,0,0,0,1003.7,1017.1
36,2023-07-31T00:35:00,0.9,西南西,2,西南西,25.6,86.6,0,0,0,0,0,0,1003.7,1017.1
37,2023-07-31T00:36:00,0.9,西南西,2,西南西,25.4,87.5,0,0,0,0,0,0,1003.7,1017.1
38,2023-07-31T00:37:00,0.9,西南西,2,西南西,25.7,88.5,0,0,0,0,0,0,1003.7,1017.1
39,2023-07-31T00:38:00,0.9,西南西,2,西南西,25.7,88.9,0,0,0,0,0,0,1003.7,1017.1
40,2023-07-31T00:39:00,0.9,西南西,2,西南西,26.1,89.2,0,0,0,0,0,0,1003.7,1017.1
41,2023-07-31T00:40:00,1,西南西,2,西南西,26.5,89.7,0,0,0,0,0,0,1003.7,1017
42,2023-07-31T00:41:00,1,西南西,2,西南西,26.5,88.7,0,0,0,0,0,0,1003.7,1017
43,2023-07-31T00:42:00,0.9,西,2,西南西,26.6,87.7,0,0,0,0,0,0,1003.7,1017
44,2023-07-31T00:43:00,0.8,西,2,西南西,26.5,86.7,0,0,0,0,0,0,1003.7,1017
45,2023-07-31T00:44:00,0.7,西,1.6,西北西,26.1,85.8,0,0,0,0,0,0,1003.7,1017.1
46,2023-07-31T00:45:00,0.7,西,1.6,西北西,25.9,85.2,0,0,0,0,0,0,1003.7,1017.1
47,2023-07-31T00:46:00,0.7,西,1.6,西北西,26,86.8,0,0,0,0,0,0,1003.7,1017.1
48,2023-07-31T00:47:00,0.8,西,1.6,西北西,26,87.1,0,0,0,0,0,0,1003.7,1017.1
49,2023-07-31T00:48:00,0.8,西,1.6,西北西,25.8,87.3,0,0,0,0,0,0,1003.7,1017.1
50,2023-07-31T00:49:00,0.8,西,1.6,西北西,25.8,87.2,0,0,0,0,0,0,1003.7,1017.1
51,2023-07-31T00:50:00,0.8,西,1.6,西北西,26.2,87.9,0,0,0,0,0,0,1003.7,1017
52,2023-07-31T00:51:00,0.7,西,1.6,西北西,26.2,88,0,0,0,0,0,0,1003.7,1017
53,2023-07-31T00:52:00,0.7,西,1.6,西北西,26.3,87.5,0,0,0,0,0,0,1003.6,1016.9
54,2023-07-31T00:53:00,0.7,西,1.6,西北西,26.3,87.2,0,0,0,0,0,0,1003.6,1016.9
55,2023-07-31T00:54:00,0.7,西南西,1.6,西北西,26.4,87,0,0,0,0,0,0,1003.6,1016.9
56,2023-07-31T00:55:00,0.7,西南西,1.6,西北西,26,86.3,0,0,0,0,0,0,1003.6,1017
57,2023-07-31T00:56:00,0.7,西南西,1.6,西北西,26,86.3,0,0,0,0,0,0,1003.6,1017
58,2023-07-31T00:57:00,0.6,西南西,1.6,西北西,26.3,87.1,0,0,0,0,0,0,1003.6,1016.9
59,2023-07-31T00:58:00,0.6,西南西,1.6,西北西,26.4,87.2,0,0,0,0,0,0,1003.6,1016.9
60,2023-07-31T00:59:00,0.6,西南西,1.4,南南西,26.4,86.8,0,0,0,0,0,0,1003.6,1016.9
61,2023-07-31T01:00:00,0.5,南西,1.4,南南西,26.2,86.3,0,0,0,0,0,0,1003.5,1016.8
62,2023-07-31T01:01:00,0.5,南西,1.4,南南西,26.4,86.5,0,0,0,0,0,0,1003.5,1016.8
63,2023-07-31T01:02:00,0.5,南南西,1.4,南南西,26.3,86.2,0,0,0,0,0,0,1003.5,1016.8
64,2023-07-31T01:03:00,0.4,南南西,1.4,南南西,26.4,86.2,0,0,0,0,0,0,1003.5,1016.8
65,2023-07-31T01:04:00,0.4,南西,1.4,南南西,26.2,86.1,0,0,0,0,0,0,1003.5,1016.8
66,2023-07-31T01:05:00,0.4,南西,1.4,南南西,26.1,85.9,0,0,0,0,0,0,1003.6,1017
67,2023-07-31T01:06:00,0.3,南西,1.1,南西,25.8,85.7,0,0,0,0,0,0,1003.6,1017
68,2023-07-31T01:07:00,0.3,南西,1.1,南西,26.1,87,0,0,0,0,0,0,1003.6,1017
69,2023-07-31T01:08:00,0.3,南西,1,西,26.1,86.8,0,0,0,0,0,0,1003.6,1017
70,2023-07-31T01:09:00,0.2,静穏,1,西,26.2,87.4,0,0,0,0,0,0,1003.6,1016.9
71,2023-07-31T01:10:00,0.3,南西,1,西,26.1,86.9,0,0,0,0,0,0,1003.6,1017
72,2023-07-31T01:11:00,0.3,西南西,1.1,西,26.3,87.2,0,0,0,0,0,0,1003.6,1016.9
73,2023-07-31T01:12:00,0.3,西南西,1.2,西,26.1,86.7,0,0,0,0,0,0,1003.6,1017
74,2023-07-31T01:13:00,0.4,西,1.5,西,25.6,85.7,0,0,0,0,0,0,1003.6,1017
75,2023-07-31T01:14:00,0.6,西南西,2.6,西,25.4,86.2,0,0,0,0,0,0,1003.6,1017
76,2023-07-31T01:15:00,0.8,西南西,3.1,西,25.2,87,0,0,0,0,0,0,1003.6,1017
77,2023-07-31T01:16:00,1,西南西,3.1,西,25.1,87.8,0,0,0,0,0,0,1003.6,1017
78,2023-07-31T01:17:00,1.1,西,3.1,西,25.2,88.8,0,0,0,0,0,0,1003.6,1017
79,2023-07-31T01:18:00,1.3,西,3.1,西,25.1,89.5,0,0,0,0,0,0,1003.6,1017
80,2023-07-31T01:19:00,1.5,西,3.1,西,25.1,89.9,0,0,0,0,0,0,1003.6,1017
81,2023-07-31T01:20:00,1.6,西,3.1,西,25.1,90.2,0,0,0,0,0,0,1003.6,1017
82,2023-07-31T01:21:00,1.6,西,3.1,西,25.3,90.8,0,0,0,0,0,0,1003.6,1017
83,2023-07-31T01:22:00,1.6,西,3.1,西,25.7,91.6,0,0,0,0,0,0,1003.6,1017
84,2023-07-31T01:23:00,1.6,西,3.1,西,25.5,90.6,0,0,0,0,0,0,1003.6,1017
85,2023-07-31T01:24:00,1.4,西南西,3.1,西,25.6,90.6,0,0,0,0,0,0,1003.6,1017
86,2023-07-31T01:25:00,1.3,西南西,2.9,西南西,25.8,90.2,0,0,0,0,0,0,1003.6,1017
87,2023-07-31T01:26:00,1.2,西南西,2.9,西南西,25.7,89.5,0,0,0,0,0,0,1003.6,1017
88,2023-07-31T01:27:00,1.1,西南西,2.9,西南西,25.7,88.8,0,0,0,0,0,0,1003.6,1017
89,2023-07-31T01:28:00,0.8,西南西,2.5,西,26,89.6,0,0,0,0,0,0,1003.6,1017
90,2023-07-31T01:29:00,0.7,西南西,2.1,西,25.9,89,0,0,0,0,0,0,1003.6,1017
91,2023-07-31T01:30:00,0.6,西南西,1.6,西,25.6,88,0,0,0,0,0,0,1003.6,1017
92,2023-07-31T01:31:00,0.5,西南西,1.6,西,25.6,87.9,0,0,0,0,0,0,1003.6,1017
93,2023-07-31T01:32:00,0.6,西南西,1.8,西,25.5,88,0,0,0,0,0,0,1003.6,1017
94,2023-07-31T01:33:00,0.7,西南西,1.8,西,25.5,88.2,0,0,0,0,0,0,1003.6,1017
95,2023-07-31T01:34:00,0.8,西南西,2.1,西,25.4,88.3,0,0,0,0,0,0,1003.6,1017
96,2023-07-31T01:35:00,0.8,西南西,2.1,西,25.4,88.6,0,0,0,0,0,0,1003.6,1017
97,2023-07-31T01:36:00,0.9,西南西,2.1,西,25.3,88.6,0,0,0,0,0,0,1003.6,1017
98,2023-07-31T01:37:00,0.9,西南西,2.1,西,25.4,89.1,0,0,0,0,0,0,1003.6,1017
99,2023-07-31T01:38:00,1,西南西,2.1,西,25.4,89.3,0,0,0,0,0,0,1003.6,1017
100,2023-07-31T01:39:00,1.1,西,2.1,西,25.4,89.4,0,0,0,0,0,0,1003.6,1017
101,2023-07-31T01:40:00,1.1,西南西,2.1,西,25.5,89.7,0,0,0,0,0,0,1003.5,1016.9
102,2023-07-31T01:41:00,1.2,西南西,2.1,西,25.3,89.1,0,0,0,0,0,0,1003.5,1016.9
103,2023-07-31T01:42:00,1.1,西南西,2.1,西,25.4,89.1,0,0,0,0,0,0,1003.5,1016.9
104,2023-07-31T01:43:00,1.1,西南西,2.1,西,25.9,90.5,0,0,0,0,0,0,1003.5,1016.9
105,2023-07-31T01:44:00,0.9,西南西,1.9,西,25.9,89.9,0,0,0,0,0,0,1003.5,1016.9
106,2023-07-31T01:45:00,0.9,西南西,1.9,西,25.8,89.1,0,0,0,0,0,0,1003.5,1016.9
107,2023-07-31T01:46:00,0.8,西南西,1.9,西,25.7,88.2,0,0,0,0,0,0,1003.4,1016.8
108,2023-07-31T01:47:00,0.8,西南西,1.9,西,25.5,87.6,0,0,0,0,0,0,1003.4,1016.8
109,2023-07-31T01:48:00,0.8,西南西,1.9,西,25.4,87.7,0,0,0,0,0,0,1003.4,1016.8
110,2023-07-31T01:49:00,0.7,西南西,1.6,西,25.5,88.1,0,0,0,0,0,0,1003.4,1016.8
111,2023-07-31T01:50:00,0.7,西南西,1.6,西,25.4,88.3,0,0,0,0,0,0,1003.4,1016.8
112,2023-07-31T01:51:00,0.7,西南西,1.5,南西,25.4,88.2,0,0,0,0,0,0,1003.4,1016.8
113,2023-07-31T01:52:00,0.7,南西,1.5,南西,25.4,88.5,0,0,0,0,0,0,1003.4,1016.8
114,2023-07-31T01:53:00,0.8,南西,1.6,西南西,25.6,89,0,0,0,0,0,0,1003.4,1016.8
115,2023-07-31T01:54:00,0.8,南西,1.6,西南西,25.9,89.4,0,0,0,0,0,0,1003.4,1016.8
116,2023-07-31T01:55:00,0.9,南西,1.6,西南西,25.9,88.8,0,0,0,0,0,0,1003.4,1016.8
117,2023-07-31T01:56:00,0.9,南西,1.6,西南西,25.8,88.5,0,0,0,0,0,0,1003.4,1016.8
118,2023-07-31T01:57:00,0.9,南西,1.6,西南西,25.8,87.8,0,0,0,0,0,0,1003.4,1016.8
119,2023-07-31T01:58:00,0.9,南西,1.6,西南西,25.6,87.6,0,0,0,0,0,0,1003.4,1016.8
120,2023-07-31T01:59:00,0.9,南西,1.6,西南西,25.9,88.1,0,0,0,0,0,0,1003.4,1016.8
121,2023-07-31T02:00:00,1,南西,1.6,西南西,25.7,87.6,0,0,0,0,0,0,1003.4,1016.8
122,2023-07-31T02:01:00,0.9,南西,1.6,西南西,25.4,87.2,0,0,0,0,0,0,1003.4,1016.8
123,2023-07-31T02:02:00,1,南西,1.7,南西,25.4,87.4,0,0,0,0,0,0,1003.4,1016.8
124,2023-07-31T02:03:00,1,南西,2,西南西,25.4,88.1,0,0,0,0,0,0,1003.4,1016.8
125,2023-07-31T02:04:00,1.1,南西,2,西南西,25.4,88.6,0,0,0,0,0,0,1003.4,1016.8
126,2023-07-31T02:05:00,1,南西,2,西南西,25.5,88.9,0,0,0,0,0,0,1003.4,1016.8
127,2023-07-31T02:06:00,1.1,西南西,2,西南西,25.5,88.7,0,0,0,0,0,0,1003.4,1016.8
128,2023-07-31T02:07:00,1.1,西南西,2,西南西,25.3,88.8,0,0,0,0,0,0,1003.4,1016.8
129,2023-07-31T02:08:00,1.2,西南西,2,西南西,25.3,88.9,0,0,0,0,0,0,1003.5,1016.9
130,2023-07-31T02:09:00,1.1,西南西,2,西南西,25.1,89.3,0,0,0,0,0,0,1003.5,1016.9
131,2023-07-31T02:10:00,1.1,西南西,2,西南西,25.3,90,0,0,0,0,0,0,1003.5,1016.9
132,2023-07-31T02:11:00,1.1,西南西,2,西南西,25.4,90.7,0,0,0,0,0,0,1003.5,1016.9
133,2023-07-31T02:12:00,1.2,西南西,2,西南西,25.1,90.2,0,0,0,0,0,0,1003.5,1016.9
134,2023-07-31T02:13:00,1.1,西南西,2,西,25,90.1,0,0,0,0,0,0,1003.5,1016.9
135,2023-07-31T02:14:00,1.1,西南西,2,西,25.3,90.8,0,0,0,0,0,0,1003.5,1016.9
136,2023-07-31T02:15:00,1,西南西,2,西,25.2,90.9,0,0,0,0,0,0,1003.4,1016.8
137,2023-07-31T02:16:00,0.9,西南西,2,西,25.1,90.7,0,0,0,0,0,0,1003.4,1016.8
138,2023-07-31T02:17:00,0.8,西南西,2,西,25.2,90.6,0,0,0,0,0,0,1003.4,1016.8
139,2023-07-31T02:18:00,0.8,西南西,2,西,25.4,91,0,0,0,0,0,0,1003.4,1016.8
140,2023-07-31T02:19:00,0.8,西南西,2,西,25.7,91,0,0,0,0,0,0,1003.4,1016.8
141,2023-07-31T02:20:00,0.8,西南西,2,西,26,91.1,0,0,0,0,0,0,1003.4,1016.8
142,2023-07-31T02:21:00,0.7,西南西,1.8,西南西,26.1,90,0,0,0,0,0,0,1003.4,1016.8
143,2023-07-31T02:22:00,0.7,西南西,1.5,西南西,26.2,89,0,0,0,0,0,0,1003.3,1016.6
144,2023-07-31T02:23:00,0.6,西南西,1.4,西北西,25.7,87.9,0,0,0,0,0,0,1003.3,1016.7
145,2023-07-31T02:24:00,0.5,西南西,1.4,西北西,25.8,87.5,0,0,0,0,0,0,1003.3,1016.7
146,2023-07-31T02:25:00,0.5,西南西,1.4,西北西,26,88.1,0,0,0,0,0,0,1003.3,1016.7
147,2023-07-31T02:26:00,0.5,西南西,1.4,西北西,26,87.8,0,0,0,0,0,0,1003.3,1016.7
148,2023-07-31T02:27:00,0.4,西南西,1.4,西北西,26,87.5,0,0,0,0,0,0,1003.3,1016.7
149,2023-07-31T02:28:00,0.4,西南西,1.4,西北西,26,86.9,0,0,0,0,0,0,1003.3,1016.7
150,2023-07-31T02:29:00,0.4,西南西,1.4,西北西,26,86.6,0,0,0,0,0,0,1003.3,1016.7
151,2023-07-31T02:30:00,0.4,西南西,1.1,南南西,26.2,86.6,0,0,0,0,0,0,1003.3,1016.6
152,2023-07-31T02:31:00,0.4,南西,1.3,南西,26.1,86.1,0,0,0,0,0,0,1003.3,1016.6
153,2023-07-31T02:32:00,0.5,南西,1.8,南南西,26,85.5,0,0,0,0,0,0,1003.4,1016.8
154,2023-07-31T02:33:00,0.5,南西,1.8,南南西,25.8,85,0,0,0,0,0,0,1003.3,1016.7
155,2023-07-31T02:34:00,0.6,南西,1.8,南南西,25.3,85.2,0,0,0,0,0,0,1003.4,1016.8
156,2023-07-31T02:35:00,0.8,南西,1.8,南南西,25.4,86.2,0,0,0,0,0,0,1003.4,1016.8
157,2023-07-31T02:36:00,0.8,南西,1.8,南南西,25.5,87.9,0,0,0,0,0,0,1003.4,1016.8
158,2023-07-31T02:37:00,1,南西,1.8,南南西,25.4,88,0,0,0,0,0,0,1003.4,1016.8
159,2023-07-31T02:38:00,1.1,南西,1.8,南南西,25.3,88.1,0,0,0,0,0,0,1003.4,1016.8
160,2023-07-31T02:39:00,1.1,南西,1.8,南南西,25.2,88.4,0,0,0,0,0,0,1003.4,1016.8
161,2023-07-31T02:40:00,1.1,南西,1.8,南南西,25,88.6,0,0,0,0,0,0,1003.4,1016.8
162,2023-07-31T02:41:00,1.1,南西,1.8,南南西,25.3,89.4,0,0,0,0,0,0,1003.4,1016.8
163,2023-07-31T02:42:00,1.1,南西,1.8,南西,25.4,90.6,0,0,0,0,0,0,1003.4,1016.8
164,2023-07-31T02:43:00,1.1,南西,1.8,南西,25,89.6,0,0,0,0,0,0,1003.4,1016.8
165,2023-07-31T02:44:00,1.1,南西,2.4,西,25,89.9,0,0,0,0,0,0,1003.4,1016.8
166,2023-07-31T02:45:00,1.1,西南西,2.4,西,24.9,90.2,0,0,0,0,0,0,1003.4,1016.8
167,2023-07-31T02:46:00,1.1,西南西,2.4,西,24.7,90.5,0,0,0,0,0,0,1003.4,1016.8
168,2023-07-31T02:47:00,1.1,西南西,2.4,西,25,91.3,0,0,0,0,0,0,1003.4,1016.8
169,2023-07-31T02:48:00,1.1,西南西,2.4,西,24.9,92.1,0,0,0,0,0,0,1003.4,1016.8
170,2023-07-31T02:49:00,1.2,西南西,2.4,西,24.8,91.6,0,0,0,0,0,0,1003.5,1016.9
171,2023-07-31T02:50:00,1.2,西南西,2.4,西,24.9,92.2,0,0,0,0,0,0,1003.5,1016.9
172,2023-07-31T02:51:00,1.2,西南西,2.4,西,24.9,92.3,0,0,0,0,0,0,1003.5,1016.9
173,2023-07-31T02:52:00,1.2,西南西,2.4,西,25,92.8,0,0,0,0,0,0,1003.5,1016.9
174,2023-07-31T02:53:00,1.2,西南西,2.4,西,25,93,0,0,0,0,0,0,1003.5,1016.9
175,2023-07-31T02:54:00,1.1,西南西,2.4,西,24.9,92.4,0,0,0,0,0,0,1003.5,1016.9
176,2023-07-31T02:55:00,1.1,南西,1.9,南西,25,92.8,0,0,0,0,0,0,1003.5,1016.9
177,2023-07-31T02:56:00,1.1,南西,1.9,南西,24.9,93,0,0,0,0,0,0,1003.5,1016.9
178,2023-07-31T02:57:00,1.1,南西,1.9,南西,24.9,92.9,0,0,0,0,0,0,1003.5,1016.9
179,2023-07-31T02:58:00,1.1,南西,1.9,南西,24.9,93.2,0,0,0,0,0,0,1003.5,1016.9
180,2023-07-31T02:59:00,1.2,南西,2,南西,24.8,93.1,0,0,0,0,0,0,1003.5,1016.9
181,2023-07-31T03:00:00,1.2,南西,2.3,南西,24.7,93.1,0,0,0,0,0,0,1003.5,1016.9
182,2023-07-31T03:01:00,1.3,南西,2.3,南西,24.8,93.5,0,0,0,0,0,0,1003.5,1016.9
183,2023-07-31T03:02:00,1.3,南西,2.3,南西,24.7,93.5,0,0,0,0,0,0,1003.5,1016.9
184,2023-07-31T03:03:00,1.4,南西,2.9,南西,24.8,93.6,0,0,0,0,0,0,1003.5,1016.9
185,2023-07-31T03:04:00,1.5,南西,2.9,南西,25,94.4,0,0,0,0,0,0,1003.5,1016.9
186,2023-07-31T03:05:00,1.6,南西,2.9,南西,24.8,94.1,0,0,0,0,0,0,1003.5,1016.9
187,2023-07-31T03:06:00,1.6,南西,2.9,南西,24.8,94,0,0,0,0,0,0,1003.5,1016.9
188,2023-07-31T03:07:00,1.6,南西,2.9,南西,25.1,94.1,0,0,0,0,0,0,1003.5,1016.9
189,2023-07-31T03:08:00,1.6,南西,2.9,南西,25.4,94.6,0,0,0,0,0,0,1003.5,1016.9
190,2023-07-31T03:09:00,1.5,南西,2.9,南西,25.4,94.2,0,0,0,0,0,0,1003.5,1016.9
191,2023-07-31T03:10:00,1.5,南西,2.9,南西,25,92.6,0,0,0,0,0,0,1003.5,1016.9
192,2023-07-31T03:11:00,1.5,南西,2.9,南西,25.1,92.2,0,0,0,0,0,0,1003.5,1016.9
193,2023-07-31T03:12:00,1.4,南西,2.9,南西,25.4,92.9,0,0,0,0,0,0,1003.5,1016.9
194,2023-07-31T03:13:00,1.3,南西,2.5,南南西,25.1,92.4,0,0,0,0,0,0,1003.5,1016.9
195,2023-07-31T03:14:00,1.3,南西,2.5,南南西,24.8,91.6,0,0,0,0,0,0,1003.5,1016.9
196,2023-07-31T03:15:00,1.3,南西,2.3,南南西,25.1,92.4,0,0,0,0,0,0,1003.5,1016.9
197,2023-07-31T03:16:00,1.3,南西,2.5,南西,25.2,92.8,0,0,0,0,0,0,1003.5,1016.9
198,2023-07-31T03:17:00,1.3,南西,2.5,南西,25,92.3,0,0,0,0,0,0,1003.5,1016.9
199,2023-07-31T03:18:00,1.4,南西,2.5,南西,24.8,92.2,0,0,0,0,0,0,1003.5,1016.9
200,2023-07-31T03:19:00,1.4,南西,2.5,南西,25.1,92.4,0,0,0,0,0,0,1003.4,1016.8
201,2023-07-31T03:20:00,1.4,南西,2.5,南西,25.2,93.2,0,0,0,0,0,0,1003.4,1016.8
202,2023-07-31T03:21:00,1.4,南南西,2.5,南西,25.2,92.8,0,0,0,0,0,0,1003.4,1016.8
203,2023-07-31T03:22:00,1.4,南西,2.5,南西,25,92.4,0,0,0,0,0,0,1003.4,1016.8
204,2023-07-31T03:23:00,1.4,南西,2.5,南西,24.8,91.9,0,0,0,0,0,0,1003.4,1016.8
205,2023-07-31T03:24:00,1.4,南西,2.5,南西,24.7,92.1,0,0,0,0,0,0,1003.5,1016.9
206,2023-07-31T03:25:00,1.3,南西,2.5,南西,25,93,0,0,0,0,0,0,1003.5,1016.9
207,2023-07-31T03:26:00,1.2,南西,2.4,南南西,25.1,93.5,0,0,0,0,0,0,1003.5,1016.9
208,2023-07-31T03:27:00,1.1,南西,2.4,南南西,25.2,93.6,0,0,0,0,0,0,1003.5,1016.9
209,2023-07-31T03:28:00,1,南西,2,南南西,25.4,93.3,0,0,0,0,0,0,1003.5,1016.9
210,2023-07-31T03:29:00,1,南西,2,南南西,25.1,92.4,0,0,0,0,0,0,1003.5,1016.9
211,2023-07-31T03:30:00,1,南西,2,南南西,25.1,91.7,0,0,0,0,0,0,1003.5,1016.9
212,2023-07-31T03:31:00,1,南西,2,南南西,24.9,91.6,0,0,0,0,0,0,1003.4,1016.8
213,2023-07-31T03:32:00,1,南南西,2,南南西,25.2,92.1,0,0,0,0,0,0,1003.4,1016.8
214,2023-07-31T03:33:00,1.1,南南西,2.3,南西,24.9,92.1,0,0,0,0,0,0,1003.4,1016.8
215,2023-07-31T03:34:00,1.1,南南西,2.3,南西,24.7,91.5,0,0,0,0,0,0,1003.5,1016.9
216,2023-07-31T03:35:00,1.2,南南西,2.3,南西,24.7,92.2,0,0,0,0,0,0,1003.5,1016.9
217,2023-07-31T03:36:00,1.2,南南西,2.3,南西,24.8,92.7,0,0,0,0,0,0,1003.5,1016.9
218,2023-07-31T03:37:00,1.3,南南西,2.3,南西,24.8,93.4,0,0,0,0,0,0,1003.5,1016.9
219,2023-07-31T03:38:00,1.4,南南西,2.3,南西,24.7,93.2,0,0,0,0,0,0,1003.5,1016.9
220,2023-07-31T03:39:00,1.3,南南西,2.3,南西,24.8,94,0,0,0,0,0,0,1003.5,1016.9
221,2023-07-31T03:40:00,1.2,南西,2.3,南西,24.6,93.3,0,0,0,0,0,0,1003.5,1016.9
222,2023-07-31T03:41:00,1.1,南西,2.3,南西,24.8,93.7,0,0,0,0,0,0,1003.5,1016.9
223,2023-07-31T03:42:00,1.1,南西,2.3,南西,24.6,93.6,0,0,0,0,0,0,1003.6,1017
224,2023-07-31T03:43:00,1,南西,2,南西,24.8,93.9,0,0,0,0,0,0,1003.5,1016.9
225,2023-07-31T03:44:00,1,南西,2,南西,24.7,94.2,0,0,0,0,0,0,1003.5,1016.9
226,2023-07-31T03:45:00,1,南西,2,南西,24.7,93.9,0,0,0,0,0,0,1003.5,1016.9
227,2023-07-31T03:46:00,1,南西,2,南西,24.8,94.3,0,0,0,0,0,0,1003.5,1016.9
228,2023-07-31T03:47:00,1,南西,2,南西,24.5,93.6,0,0,0,0,0,0,1003.5,1016.9
229,2023-07-31T03:48:00,1,南西,1.9,南西,24.7,94,0,0,0,0,0,0,1003.5,1016.9
230,2023-07-31T03:49:00,1,南西,2.2,南南西,24.6,93.8,0,0,0,0,0,0,1003.5,1016.9
231,2023-07-31T03:50:00,1.1,南西,2.2,南南西,24.7,94,0,0,0,0,0,0,1003.5,1016.9
232,2023-07-31T03:51:00,1.2,南西,2.2,南南西,24.6,94.2,0,0,0,0,0,0,1003.5,1016.9
233,2023-07-31T03:52:00,1.3,南西,2.4,南南西,24.6,94.2,0,0,0,0,0,0,1003.5,1016.9
234,2023-07-31T03:53:00,1.3,南南西,2.7,南南西,24.5,94,0,0,0,0,0,0,1003.5,1016.9
235,2023-07-31T03:54:00,1.4,南南西,2.7,南南西,24.4,93.8,0,0,0,0,0,0,1003.5,1016.9
236,2023-07-31T03:55:00,1.4,南南西,2.7,南南西,24.6,94.2,0,0,0,0,0,0,1003.5,1016.9
237,2023-07-31T03:56:00,1.6,南南西,2.7,南南西,24.6,94.6,0,0,0,0,0,0,1003.5,1016.9
238,2023-07-31T03:57:00,1.5,南南西,2.7,南南西,24.4,94.5,0,0,0,0,0,0,1003.5,1016.9
239,2023-07-31T03:58:00,1.5,南南西,2.7,南南西,24.6,94.8,0,0,0,0,0,0,1003.5,1016.9
240,2023-07-31T03:59:00,1.4,南南西,2.7,南南西,24.9,95.2,0,0,0,0,0,0,1003.5,1016.9
241,2023-07-31T04:00:00,1.3,南西,2.7,南南西,25.2,95.6,0,0,0,0,0,0,1003.5,1016.9
242,2023-07-31T04:01:00,1.2,南西,2.7,南南西,25.5,95.4,0,0,0,0,0,0,1003.5,1016.9
243,2023-07-31T04:02:00,1.1,南西,2.7,南南西,25.6,94.8,0,0,0,0,0,0,1003.5,1016.9
244,2023-07-31T04:03:00,1,西南西,2.2,南,25.5,93.5,0,0,0,0,0,0,1003.6,1017
245,2023-07-31T04:04:00,0.9,西南西,2.2,南,25.7,92.6,0,0,0,0,0,0,1003.5,1016.9
246,2023-07-31T04:05:00,0.8,西,2.2,南,25.6,91.7,0,0,0,0,0,0,1003.6,1017
247,2023-07-31T04:06:00,0.7,西,1.6,南,25.6,90.9,0,0,0,0,0,0,1003.6,1017
248,2023-07-31T04:07:00,0.7,西,1.3,西,25.6,90.4,0,0,0,0,0,0,1003.6,1017
249,2023-07-31T04:08:00,0.6,西,1.3,西,25.5,89.9,0,0,0,0,0,0,1003.6,1017
250,2023-07-31T04:09:00,0.7,西,1.3,西,25.5,89.7,0,0,0,0,0,0,1003.6,1017
251,2023-07-31T04:10:00,0.6,西,1.3,西,25.4,89.6,0,0,0,0,0,0,1003.6,1017
252,2023-07-31T04:11:00,0.6,西,1.2,西南西,25.2,89.1,0,0,0,0,0,0,1003.6,1017
253,2023-07-31T04:12:00,0.6,西,1.2,西南西,24.9,89.4,0,0,0,0,0,0,1003.6,1017
254,2023-07-31T04:13:00,0.6,西南西,1.3,南西,24.6,89.4,0,0,0,0,0,0,1003.6,1017
255,2023-07-31T04:14:00,0.6,西南西,1.4,南西,25,91.1,0,0,0,0,0,0,1003.6,1017
256,2023-07-31T04:15:00,0.7,西南西,1.4,南西,24.9,91.9,0,0,0,0,0,0,1003.6,1017
257,2023-07-31T04:16:00,0.8,西南西,1.8,南西,24.6,91.3,0,0,0,0,0,0,1003.6,1017
258,2023-07-31T04:17:00,0.8,南西,1.8,南西,24.8,91.9,0,0,0,0,0,0,1003.6,1017
259,2023-07-31T04:18:00,0.8,南西,1.8,南西,25,93,0,0,0,0,0,0,1003.6,1017
260,2023-07-31T04:19:00,0.9,南西,2.4,南西,24.6,92.6,0,0,0,0,0,0,1003.6,1017
261,2023-07-31T04:20:00,1.1,南西,2.4,南西,24.4,92.2,0,0,0,0,0,0,1003.7,1017.1
262,2023-07-31T04:21:00,1.1,南西,2.4,南西,24.3,92.4,0,0,0,0,0,0,1003.7,1017.1
263,2023-07-31T04:22:00,1.2,南西,2.4,南西,24.5,93.6,0,0,0,0,0,0,1003.7,1017.1
264,2023-07-31T04:23:00,1.2,南西,2.4,南西,24.4,93.7,0,0,0,0,0,0,1003.7,1017.1
265,2023-07-31T04:24:00,1.2,南西,2.4,南西,24.2,93.8,0,0,0,0,0,0,1003.7,1017.1
266,2023-07-31T04:25:00,1.2,南西,2.4,南西,24.2,94.1,0,0,0,0,0,0,1003.7,1017.1
267,2023-07-31T04:26:00,1.2,南西,2.4,南西,24.1,94.4,0,0,0,0,0,0,1003.7,1017.1
268,2023-07-31T04:27:00,1.2,西南西,2.4,南西,24.1,94.6,0,0,0,0,0,0,1003.7,1017.1
269,2023-07-31T04:28:00,1.2,西南西,2.4,南西,24.4,95.3,0,0,0,0,0,0,1003.7,1017.1
270,2023-07-31T04:29:00,1.1,西南西,2.2,南西,24.1,95.4,0,0,0,0,0,0,1003.7,1017.1
271,2023-07-31T04:30:00,1,西南西,2.1,南西,24.2,95.2,0,0,0,0,0,0,1003.7,1017.1
272,2023-07-31T04:31:00,1,西南西,2.1,南西,24.2,95.3,0,0,0,0,0,0,1003.7,1017.1
273,2023-07-31T04:32:00,1,西南西,2.1,南西,24.3,95.5,0,0,0,0,0,0,1003.7,1017.1
274,2023-07-31T04:33:00,1,西南西,2.1,南西,24.5,95.8,0,0,0,0,0,0,1003.6,1017
275,2023-07-31T04:34:00,0.9,西南西,1.7,南西,24.4,95.4,0,0,0,0,0,0,1003.6,1017
276,2023-07-31T04:35:00,1,西南西,1.7,南西,24.3,95.3,0,0,0,0,0,0,1003.7,1017.1
277,2023-07-31T04:36:00,1,西南西,1.7,南西,24.2,95.1,0,0,0,0,0,0,1003.7,1017.1
278,2023-07-31T04:37:00,1,南西,1.7,南西,24.8,95.5,0,0,0,0,0,0,1003.7,1017.1
279,2023-07-31T04:38:00,1,南西,1.7,南西,24.4,95.3,0,0,0,0,0,0,1003.7,1017.1
280,2023-07-31T04:39:00,1.1,南西,1.9,南西,24.6,95,0,0,0,0,0,0,1003.7,1017.1
281,2023-07-31T04:40:00,1.2,南西,1.9,南西,24.5,94.6,0,0,0,0,0,0,1003.7,1017.1
282,2023-07-31T04:41:00,1.2,南西,1.9,南西,24.5,94.8,0,0,0,0,0,0,1003.7,1017.1
283,2023-07-31T04:42:00,1.2,南西,1.9,南西,24.7,94.7,0,0,0,0,0,0,1003.7,1017.1
284,2023-07-31T04:43:00,1.2,南西,1.9,南西,24.9,94.7,0,0,0,0,0,0,1003.7,1017.1
285,2023-07-31T04:44:00,1.1,南西,1.9,南西,25.1,94.7,0,0,0,0,0,0,1003.7,1017.1
286,2023-07-31T04:45:00,1.1,南西,1.9,南西,25,93.7,0,0,0,0,0,0,1003.7,1017.1
287,2023-07-31T04:46:00,1,南西,1.9,南西,25.1,93.2,0,0,0,0,0,0,1003.7,1017.1
288,2023-07-31T04:47:00,1,南西,1.9,南西,25,92.4,0,0,0,0,0,0,1003.7,1017.1
289,2023-07-31T04:48:00,1,南西,1.9,南西,24.8,91.8,0,0,0,0,0,0,1003.7,1017.1
290,2023-07-31T04:49:00,0.9,南西,1.8,南南西,24.5,90.9,0,0,0,0,0,0,1003.7,1017.1
291,2023-07-31T04:50:00,0.8,南西,1.7,西南西,24.4,91.2,0,0,0,0,0,0,1003.7,1017.1
292,2023-07-31T04:51:00,0.8,南西,1.4,南西,24.2,91.4,0,0,0,0,0,0,1003.7,1017.1
293,2023-07-31T04:52:00,0.8,南西,1.6,西南西,24.1,92,0,0,0,0,0,0,1003.7,1017.1
294,2023-07-31T04:53:00,0.8,南西,1.8,西南西,24.1,92.7,0,0,0,0,0,0,1003.7,1017.1
295,2023-07-31T04:54:00,0.8,南西,1.8,西南西,24.1,93.3,0,0,0,0,0,0,1003.7,1017.1
296,2023-07-31T04:55:00,0.9,南西,1.8,西南西,24.1,94,0,0,0,0,0,0,1003.7,1017.1
297,2023-07-31T04:56:00,0.9,南西,1.8,西南西,24.2,94.5,0,0,0,0,0,0,1003.7,1017.1
298,2023-07-31T04:57:00,0.9,西南西,1.8,西南西,24.1,94.6,0,0,0,0,0,0,1003.7,1017.1
299,2023-07-31T04:58:00,0.9,西南西,1.8,西南西,24.1,94.8,0,0,0,0,0,0,1003.7,1017.1
300,2023-07-31T04:59:00,0.9,西南西,1.8,西南西,24.2,95.2,0,0,0,0,0,0,1003.7,1017.1
301,2023-07-31T05:00:00,0.9,西南西,1.8,西南西,24.1,95.1,0,0,0,0,0,0,1003.7,1017.1
302,2023-07-31T05:01:00,0.9,西南西,1.8,西南西,24.5,95.4,0,0,0,0,0,0,1003.7,1017.1
303,2023-07-31T05:02:00,0.9,南西,1.8,西南西,24.7,95.7,0,0,0,0,0,0,1003.7,1017.1
304,2023-07-31T05:03:00,0.8,南西,1.8,南南西,25,95.5,0,0,0,0,0,0,1003.7,1017.1
305,2023-07-31T05:04:00,0.7,南西,1.8,南南西,25.3,95.3,0,0,0,0,0,0,1003.7,1017.1
306,2023-07-31T05:05:00,0.7,西南西,1.8,南南西,25.3,94.4,0,0,0,0,0,0,1003.7,1017.1
307,2023-07-31T05:06:00,0.6,西南西,1.8,南南西,25.4,93.2,0,0,0,0,0,0,1003.7,1017.1
308,2023-07-31T05:07:00,0.5,西南西,1.8,南南西,25,91.8,0,0,0,0,0,0,1003.6,1017
309,2023-07-31T05:08:00,0.5,西南西,1.3,南西,24.8,90.2,0,0,0,0,0,0,1003.6,1017
310,2023-07-31T05:09:00,0.4,西南西,1.3,南西,25.2,91,0,0,0,0,0,0,1003.6,1017
311,2023-07-31T05:10:00,0.4,南西,1.1,西南西,25.4,91.3,0,0,0,0,0,0,1003.6,1017
312,2023-07-31T05:11:00,0.4,南西,1.4,南,25.1,90.4,0,0,0,0,0,0,1003.6,1017
313,2023-07-31T05:12:00,0.5,南西,1.4,南,24.9,89.8,0,0,0,0,0,0,1003.6,1017
314,2023-07-31T05:13:00,0.4,南西,1.4,南,24.7,89.7,0,0,0,0,0,0,1003.6,1017
315,2023-07-31T05:14:00,0.5,南西,1.4,南,24.8,90.5,0,0,0,0,0,0,1003.6,1017
316,2023-07-31T05:15:00,0.5,南西,1.4,南,24.9,91.1,0,0,0,0,0,0,1003.6,1017
317,2023-07-31T05:16:00,0.5,南南西,1.4,南,24.8,91.1,0,0,0,0,0,0,1003.6,1017
318,2023-07-31T05:17:00,0.6,南南西,1.4,南,25,91.5,0,0,0,0,0.01,0,1003.6,1017
319,2023-07-31T05:18:00,0.6,南南西,1.6,南南西,25,91.7,0,0,0,0,0.01,0,1003.6,1017
320,2023-07-31T05:19:00,0.8,南南西,1.8,南,24.9,91.4,0,0,0,0,0.01,0,1003.6,1017
321,2023-07-31T05:20:00,0.9,南南西,1.8,南,24.6,90.8,0,0,0,0,0.01,0,1003.6,1017
322,2023-07-31T05:21:00,0.9,南南西,1.8,南,24.6,91,0,0,0,0,0.01,0,1003.6,1017
323,2023-07-31T05:22:00,0.9,南南西,1.8,南,24.6,91.5,0,0,0,0,0.01,0,1003.6,1017
324,2023-07-31T05:23:00,0.9,南南西,1.8,南,24.6,92,0,0,0,0,0.01,0,1003.5,1016.9
325,2023-07-31T05:24:00,1,南南西,1.8,南,24.5,92.4,0,0,0,0,0.01,0,1003.5,1016.9
326,2023-07-31T05:25:00,1,南南西,1.8,南,24.2,91.9,0,0,0,0,0.01,0,1003.5,1016.9
327,2023-07-31T05:26:00,1,南西,2.1,西,24.1,92.3,0,0,0,0,0.02,0,1003.6,1017